sat.trackr.live / text

‹ back to catalog

ZHUHAI-1 03E

NORAD 44539 · 2019-060F

PAYLOAD ACTIVE UNKNOWN

§ Identity

Operator
Country
PRC
Launch date
2019-09-19
Launch site
JSC
Launch vehicle
Mass (kg)
RCS (m²)

External: N2YO · Heavens-Above · Gunter

§ Orbital elements

Epoch: 2026-05-25T04:28:43.491936Z

Period
93.49 min
Inclination
97.5584°
Eccentricity
0.0007236
Mean motion
15.40208020 rev/d
Perigee alt
440.6 km
Apogee alt
450.4 km
Semi-major
6,823.6 km
B*
4.3032e-4
RAAN
294.3552°
Arg perigee
105.9437°
Mean anomaly
254.2606°
Rev number
37,222

§ Raw data

ZHUHAI-1 03E1 44539U 19060F   26145.18661449  .00017231  00000+0  43032-3 0  99962 44539  97.5584 294.3552 0007236 105.9437 254.2606 15.40208020372225

JSON: /api/v1/satellites/44539 · /tle

For live sub-satellite position, see the globe view (requires WebGL).

§ Visibility from observer

Set your observer location to see the next 7 days of passes ≥ 10°. The values pass through the URL so the page stays shareable.

No JS? Fill the form by hand. The geolocation button needs JavaScript.

§ Radio — SatNOGS DB

ModeDescriptionDownlinkUplink
FM S-band telemetry 2.207 GHz

1 transmitter · refreshed weekly from db.satnogs.org